#timestamp,LO_Frequency,Hit,StdDev 
1652119215.1,286047002.8,P
1652119235.9,286047002.8,Y
1652119255.7,286046999.0,P
1652119275.5,286046999.1,N
1652119295.4,286046996.7,N
1652119315.2,286046997.7,N
1652119335.0,286046997.4,N
1652119335.9,286046997.4,N
1652119355.8,286046996.5,N
1652119375.6,286046998.8,N
1652119395.5,286046998.7,N
1652119415.3,286046998.3,N
1652119435.1,286046998.4,N
1652119455.9,286047001.0,N
1652119475.7,286046999.9,N
1652119495.5,286047000.6,N
1652119515.4,286047000.8,N
1652119535.2,286047000.5,N
1652119555.1,286046998.1,N
1652119556.0,286046998.1,N
1652119575.8,286046998.4,N
1652119595.6,286047000.7,N
1652119615.5,286047000.5,N
1652119635.3,286047001.2,N
1652119655.2,286046998.8,N
1652119675.9,286046999.3,N
1652119695.7,286046999.0,N
1652119715.6,286047001.1,N
1652119735.4,286047001.0,N
1652119755.3,286047001.2,N
1652119775.1,286047000.8,N
1652119776.0,286047000.8,N
1652119795.8,286046998.9,N
1652119815.7,286046998.8,N
1652119835.5,286046998.3,N
1652119855.3,286046998.5,N
1652119875.2,286047000.1,N
1652119895.0,286047000.2,N
1652119895.9,286047000.2,N
1652119915.8,286047002.0,N
1652119935.6,286047004.0,Y
1652119955.4,286047002.5,P
1652119975.3,286047002.7,N
1652119995.1,286047002.6,N
1652120015.8,286047002.0,N
1652120035.7,286047002.2,N
1652120055.5,286047004.2,Y
1652120075.4,286047000.1,P
1652120095.2,286046999.8,N
1652120115.0,286047002.8,N
1652120115.9,286047002.8,N
1652120135.8,286047000.1,N
1652120155.6,286047000.3,N
1652120175.5,286047001.0,N
1652120195.3,286047000.5,N
1652120215.1,286046999.9,N
1652120235.9,286046999.8,N
1652120255.7,286047000.1,N
1652120275.5,286047002.1,N
1652120295.4,286047002.5,N
1652120315.2,286047002.6,N
1652120335.1,286047000.1,N
1652120336.0,286047000.1,N
1652120355.8,286047000.0,N
1652120375.6,286047000.2,N
1652120395.5,286047002.3,N
1652120415.3,286047001.9,N
1652120435.1,286047001.8,N
1652120455.9,286047001.6,N
1652120475.7,286047002.4,N
1652120495.6,286047002.4,N
1652120515.4,286047000.8,N
1652120535.2,286047000.0,N
1652120555.1,286047000.1,N
1652120556.0,286047000.1,N
1652120575.8,286046999.8,N
1652120595.6,286047002.6,N
1652120615.5,286047002.0,N
1652120635.3,286047001.6,N
1652120655.2,286047002.0,N
1652120675.9,286047002.1,N
1652120695.7,286047002.3,N
1652120715.6,286047001.8,N
1652120735.4,286047001.7,N
1652120755.2,286047002.0,N
1652120775.1,286047002.2,N
1652120776.0,286047002.2,N
1652120795.8,286047002.4,N
1652120815.7,286047002.0,N
1652120835.5,286047000.3,N
1652120855.3,286047002.8,N
1652120875.2,286047002.3,N
1652120895.0,286047002.8,N
1652120895.9,286047002.8,N
1652120915.7,286047000.3,N
1652120935.6,286046998.7,N
1652120955.4,286046998.2,N
1652120975.3,286046998.1,N
1652120995.1,286047000.3,N
1652121015.8,286047002.7,N
1652121035.7,286047002.5,N
1652121055.5,286047000.6,N
1652121075.4,286047000.2,N
1652121095.2,286047001.6,N
1652121115.0,286047002.7,N
1652121115.9,286047002.7,N
1652121135.8,286047000.5,N
1652121155.6,286047000.1,N
1652121175.4,286047000.3,N
1652121195.3,286047000.0,N
1652121215.1,286047000.5,N
1652121235.9,286047000.9,N
1652121255.7,286047000.2,N
1652121275.5,286047000.4,N
1652121295.4,286047000.4,N
1652121315.2,286047000.3,N
1652121335.0,286047000.3,N
1652121336.0,286047000.3,N
1652121355.8,286047000.1,N
1652121375.6,286047002.6,N
1652121395.5,286047002.4,N
1652121415.3,286047000.0,N
1652121435.1,286047000.3,N
1652121455.9,286047001.7,N
1652121475.7,286047002.2,N
1652121495.6,286046999.8,N
1652121515.4,286047002.4,N
1652121535.2,286047002.2,N
1652121555.1,286047002.1,N
1652121556.0,286047002.1,N
1652121575.8,286047002.0,N
1652121595.7,286047004.4,Y
1652121615.5,286047002.5,P
1652121635.3,286046999.8,N
1652121655.2,286047002.5,N
1652121675.9,286047002.7,N
1652121695.7,286047002.7,N
1652121715.6,286046999.7,N
1652121735.4,286047000.1,N
1652121755.3,286047002.7,N
1652121775.1,286047002.7,N
1652121776.0,286047002.7,N
1652121795.8,286047002.7,N
1652121815.7,286047002.3,N
1652121835.5,286047003.5,N
1652121855.3,286047003.6,N
1652121875.2,286047003.7,N
1652121895.0,286047003.3,N
1652121895.9,286047003.3,N
1652121915.8,286047003.7,N
1652121935.6,286047003.5,N
1652121955.4,286047003.9,Y
1652121975.3,286047000.9,P
1652121995.1,286047000.9,N
1652122015.8,286046999.8,N
1652122035.7,286047000.4,N
1652122055.5,286047000.0,N
1652122075.4,286047001.1,N
1652122095.2,286047001.1,N
1652122115.0,286046998.1,N
1652122115.9,286046998.1,N
1652122135.8,286046998.1,N
1652122155.6,286047000.9,N
1652122175.4,286047000.6,N
1652122195.3,286047000.3,N
1652122215.1,286047000.6,N
1652122235.9,286047007.1,Y
1652122255.7,286047007.6,P
1652122275.5,286047003.5,N
1652122295.4,286047004.5,N
1652122315.2,286047005.1,N
1652122335.0,286047003.3,N
1652122336.0,286047003.3,N
1652122355.8,286047001.6,N
1652122375.6,286047001.8,N
1652122395.5,286047004.4,N
1652122415.3,286047001.5,N
1652122435.1,286047001.8,N
1652122455.9,286047003.8,N
1652122475.7,286047003.5,N
1652122495.5,286047004.2,N
1652122515.4,286047004.0,N
1652122535.2,286047001.5,N
1652122555.1,286047001.6,N
1652122556.0,286047001.6,N
1652122575.8,286047002.3,N
1652122595.6,286047002.8,N
1652122615.5,286046999.9,N
1652122635.3,286047000.5,N
1652122655.2,286047001.0,N
1652122675.9,286046998.7,N
1652122695.7,286046998.9,N
1652122715.6,286047001.0,N
1652122735.4,286047000.7,N
1652122755.3,286047000.3,N
1652122775.1,286047000.7,N
1652122776.0,286047000.7,N
1652122795.8,286047002.4,N
